Precipitable_Water
0.30 0.26 0.29 0.36 0.44 0.43 0.37 0.38 0.33 0.40 0.44 0.37 0.36 0.43 0.65 0.99 0.91 0.88 0.90 1.16 1.24 1.23 1.19 1.34 1.42 1.52 1.59 1.72 1.54 1.61 1.81 1.89 1.79 1.84 1.88 1.92 1.90 2.00 2.02 2.18 2.02 1.99 2.10 1.84
0.30 0.29 0.31 0.41 0.41 0.34 0.29 0.34 0.38 0.43 0.44 0.38 0.40 0.61 0.73 0.94 0.91 1.23 0.97 1.05 1.17 1.54 1.12 1.47 1.42 1.51 1.59 1.63 1.65 1.54 1.62 1.65 1.89 1.78 1.92 1.98 2.02 2.04 2.01 2.13 2.14 2.05 2.03 1.94
0.29 0.35 0.36 0.30 0.34 0.27 0.34 0.38 0.40 0.38 0.33 0.37 0.50 0.67 0.75 0.85 0.93 1.03 1.06 1.07 1.38 1.43 1.55 1.44 1.42 1.48 1.52 1.69 1.86 1.65 1.69 1.74 1.86 1.89 2.03 2.06 2.13 2.05 1.96 2.01 2.08 2.04 2.03 1.99
0.31 0.32 0.30 0.28 0.28 0.35 0.34 0.45 0.40 0.29 0.31 0.32 0.57 0.58 0.71 0.77 0.76 0.95 1.01 1.05 1.06 1.26 1.42 1.40 1.50 1.53 1.55 1.64 1.68 1.81 1.80 1.82 1.81 1.95 2.00 2.01 1.85 1.86 1.92 1.89 2.07 2.04 1.96 1.91
0.31 0.31 0.27 0.26 0.29 0.39 0.36 0.37 0.31 0.32 0.32 0.37 0.49 0.51 0.64 0.73 0.73 0.84 0.98 1.15 1.06 1.14 1.49 1.54 1.50 1.61 1.82 1.82 1.89 1.89 1.78 1.84 1.88 1.85 1.84 1.88 1.89 1.91 1.90 1.91 1.93 1.90 1.98 1.93
0.32 0.43 0.33 0.31 0.35 0.38 0.37 0.34 0.38 0.42 0.41 0.36 0.51 0.52 0.58 0.60 0.70 0.85 0.90 0.99 0.99 1.05 1.37 1.33 1.60 1.71 1.62 1.61 1.91 1.91 1.79 1.90 2.03 1.93 1.86 1.85 1.87 1.88 1.81 2.03 1.98 1.98 1.96 2.10
0.45 0.41 0.38 0.35 0.35 0.40 0.38 0.36 0.32 0.38 0.42 0.43 0.49 0.50 0.74 0.76 0.84 0.77 0.79 0.84 0.87 1.01 1.14 1.26 1.54 1.64 1.79 1.48 1.68 1.77 2.01 1.89 2.01 2.01 1.95 1.89 1.89 1.86 1.85 2.03 2.01 1.93 1.95 1.97
0.49 0.41 0.44 0.40 0.34 0.36 0.42 0.43 0.34 0.27 0.28 0.34 0.49 0.47 0.66 1.06 0.98 1.05 0.90 0.88 0.91 0.93 1.04 1.08 1.51 1.83 1.74 1.49 1.59 1.76 2.00 1.91 2.06 2.03 2.03 1.95 1.90 1.80 1.84 1.94 1.87 1.95 1.98 1.81
0.54 0.47 0.46 0.41 0.39 0.38 0.38 0.38 0.44 0.36 0.32 0.42 0.53 0.61 0.80 0.92 0.83 1.00 1.12 0.95 0.87 0.90 0.99 1.00 1.24 1.66 1.71 1.57 1.78 2.02 1.83 1.97 2.10 2.00 2.02 1.93 2.01 1.95 1.81 1.92 2.02 1.96 1.90 1.91
0.47 0.45 0.57 0.50 0.44 0.42 0.38 0.40 0.33 0.36 0.32 0.32 0.41 0.49 0.63 0.75 0.79 0.92 0.92 0.99 0.91 0.95 0.98 1.05 1.26 1.37 1.71 1.85 1.85 1.76 1.70 1.85 2.05 2.01 2.07 2.04 2.02 1.97 2.00 1.96 1.88 1.91 1.82 1.86
0.47 0.42 0.51 0.53 0.47 0.46 0.44 0.40 0.52 0.45 0.45 0.37 0.37 0.56 0.84 0.83 0.81 0.91 0.90 1.03 0.99 0.99 0.95 1.01 1.14 1.35 1.51 1.68 1.72 1.76 1.57 2.03 2.01 1.98 2.01 1.99 2.02 1.99 1.94 1.90 1.97 1.91 1.95 2.04
0.57 0.51 0.41 0.47 0.58 0.56 0.59 0.49 0.45 0.37 0.36 0.41 0.42 0.53 0.78 0.96 1.10 0.93 0.93 0.96 0.97 1.01 1.02 1.04 1.12 1.27 1.36 1.53 1.69 1.77 1.76 1.73 2.00 2.09 2.08 1.96 1.91 1.97 1.95 1.86 2.01 1.92 1.88 2.04
0.57 0.51 0.37 0.38 0.54 0.61 0.54 0.58 0.53 0.53 0.44 0.37 0.39 0.54 0.82 0.80 0.90 1.12 0.95 0.87 0.89 1.13 1.11 1.09 1.10 1.22 1.35 1.50 1.66 1.70 1.72 1.56 1.86 2.00 2.05 2.05 1.93 1.83 1.84 1.89 1.92 2.10 1.90 1.81
0.49 0.35 0.30 0.31 0.42 0.51 0.51 0.60 0.60 0.56 0.43 0.39 0.45 0.60 0.67 0.80 0.81 0.88 1.02 0.84 0.87 1.02 1.19 1.19 1.20 1.19 1.34 1.58 1.61 1.65 1.69 1.79 1.81 1.84 1.89 1.92 1.94 1.93 1.88 1.91 1.88 1.88 2.09 1.97
0.44 0.33 0.39 0.40 0.41 0.42 0.42 0.42 0.44 0.41 0.41 0.35 0.41 0.44 0.64 0.76 0.80 1.01 1.09 0.97 0.87 0.92 0.98 1.06 1.26 1.41 1.40 1.49 1.67 1.66 1.70 1.71 1.68 1.64 1.70 1.78 1.91 1.95 1.97 2.07 2.11 2.08 2.02 2.06
0.49 0.39 0.44 0.40 0.45 0.43 0.38 0.38 0.39 0.40 0.41 0.42 0.44 0.51 0.89 1.00 1.06 1.12 1.07 1.04 0.96 0.90 0.97 1.07 1.17 1.33 1.49 1.52 1.61 1.69 1.71 1.71 1.73 1.62 1.59 1.67 1.72 1.77 1.84 1.84 1.92 2.08 2.03 2.03
0.46 0.43 0.41 0.34 0.42 0.40 0.33 0.44 0.47 0.44 0.51 0.56 0.49 0.80 1.05 1.05 1.16 1.15 1.12 1.08 1.01 0.99 0.96 1.01 1.08 1.19 1.32 1.56 1.65 1.70 1.74 1.80 1.73 1.67 1.65 1.67 1.67 1.67 1.67 1.71 1.66 1.78 1.89 1.93
0.45 0.45 0.45 0.38 0.40 0.27 0.40 0.53 0.58 0.57 0.55 0.56 0.75 0.90 1.06 1.14 1.13 1.12 1.16 1.08 1.01 1.02 1.01 1.06 1.10 1.12 1.20 1.33 1.52 1.74 1.84 1.81 1.81 1.79 1.77 1.74 1.74 1.68 1.68 1.67 1.56 1.52 1.60 1.68
0.52 0.45 0.39 0.35 0.35 0.38 0.41 0.60 0.59 0.52 0.53 0.68 0.73 0.98 1.02 1.08 1.08 1.04 1.08 1.04 1.01 1.03 1.05 1.05 1.12 1.22 1.26 1.24 1.34 1.51 1.74 1.89 1.83 1.85 1.85 1.89 1.81 1.70 1.64 1.58 1.53 1.45 1.49 1.56
0.57 0.54 0.46 0.43 0.36 0.34 0.61 0.72 0.72 0.62 0.45 0.91 0.86 0.88 0.98 1.01 0.85 1.04 1.18 1.15 1.11 1.14 1.14 1.09 1.12 1.20 1.27 1.26 1.29 1.31 1.46 1.65 1.84 1.96 2.00 2.05 2.09 1.99 1.80 1.62 1.58 1.48 1.46 1.49
0.55 0.60 0.49 0.46 0.42 0.47 0.74 0.78 0.77 0.46 0.63 0.96 0.92 0.94 0.94 0.90 0.99 1.10 1.17 1.13 1.18 1.15 1.15 1.13 1.14 1.14 1.18 1.24 1.27 1.26 1.36 1.51 1.76 1.91 2.03 2.04 2.11 2.09 1.99 1.76 1.70 1.56 1.43 1.39
0.50 0.50 0.50 0.52 0.47 0.47 0.87 0.81 0.70 0.90 1.00 0.94 0.92 0.90 0.87 0.91 0.96 0.98 0.99 0.99 1.01 1.00 1.03 1.06 1.05 1.06 1.09 1.11 1.15 1.21 1.29 1.47 1.57 1.73 1.84 1.95 2.06 2.13 2.12 1.92 1.81 1.77 1.51 1.39
0.50 0.57 0.52 0.57 0.63 0.81 0.84 0.89 0.99 0.99 0.93 0.89 0.86 0.84 0.77 0.72 0.75 0.83 0.87 0.91 0.92 0.94 0.96 1.00 1.00 1.01 1.04 1.05 1.07 1.01 1.15 1.31 1.38 1.42 1.47 1.55 1.77 2.01 2.11 2.09 1.92 1.66 1.71 1.46
0.66 0.74 0.62 0.59 0.61 0.68 0.71 0.75 0.76 0.74 0.73 0.76 0.79 0.80 0.79 0.73 0.71 0.70 0.73 0.78 0.83 0.87 0.86 0.90 0.90 0.88 0.91 1.00 1.01 1.05 1.06 1.12 1.20 1.27 1.31 1.39 1.52 1.58 1.84 2.09 2.09 1.97 1.82 1.74
0.55 0.60 0.59 0.59 0.61 0.62 0.66 0.74 0.78 0.78 0.77 0.73 0.76 0.76 0.75 0.74 0.76 0.81 0.81 0.83 0.85 0.86 0.87 0.86 0.83 0.84 0.80 0.82 0.86 0.93 0.97 1.04 1.05 1.12 1.18 1.27 1.25 1.49 1.68 1.73 2.01 2.09 2.09 1.92
0.55 0.51 0.51 0.51 0.70 0.70 0.71 0.76 0.79 0.75 0.74 0.72 0.72 0.72 0.84 0.85 0.82 0.82 0.80 0.84 0.86 0.86 0.88 0.87 0.89 0.90 0.92 0.92 0.90 0.90 0.92 0.92 0.90 0.93 1.04 1.11 1.21 1.39 1.52 1.51 1.57 1.91 2.04 1.66
Wind_Speed
10 9 11 11 12 10 9 11 11 13 7 12 11 11 10 16 16 12 14 15 15 17 12 13 14 14 16 17 16 16 15 13 13 12 12 12 13 12 12 12 12 11 9 9
10 10 11 13 9 9 10 11 14 12 7 10 12 8 12 14 18 17 13 14 15 13 7 15 15 15 17 17 17 16 16 15 14 13 12 13 13 13 12 13 12 13 12 10
12 13 5 10 9 9 11 12 13 11 14 14 15 9 14 8 19 14 13 11 14 15 18 13 18 17 15 18 19 16 15 16 14 13 12 12 12 12 13 13 13 13 13 11
11 13 11 10 11 11 13 9 12 13 13 13 8 6 10 11 14 9 13 9 10 14 15 13 18 18 18 19 18 17 16 15 13 13 13 13 13 11 14 14 14 13 13 13
10 8 11 10 12 12 13 13 13 12 13 14 10 5 9 7 3 6 10 9 7 10 16 13 18 14 17 15 16 18 15 14 12 12 12 13 13 13 11 16 16 14 13 13
12 8 9 11 10 10 10 10 14 15 15 14 9 9 6 5 4 3 5 6 7 8 8 13 19 17 13 24 24 19 15 13 12 11 11 12 13 14 14 15 15 14 13 13
12 10 10 8 10 10 10 13 14 12 8 9 12 9 4 6 4 2 5 6 8 9 8 7 17 15 11 10 23 11 15 12 13 12 12 12 12 14 15 12 11 12 13 14
7 8 11 8 9 11 12 13 10 15 14 11 6 5 9 10 4 3 5 6 8 9 7 7 6 8 11 5 14 13 14 11 12 13 13 12 12 13 14 12 11 13 14 15
2 7 4 7 6 8 8 10 12 12 12 11 0 2 8 9 16 9 7 7 9 9 8 5 5 8 5 8 10 11 7 10 12 12 12 12 11 12 14 14 13 12 15 16
7 5 7 9 7 8 8 10 9 8 8 8 5 5 4 3 3 8 10 7 8 8 8 7 4 3 7 8 8 11 7 8 10 11 12 12 13 13 14 14 14 15 16 16
8 9 5 5 9 10 9 11 7 13 12 10 9 5 4 8 8 8 2 6 7 6 6 6 4 2 4 8 9 10 10 8 9 9 11 11 12 13 14 15 14 15 16 15
9 9 10 13 9 10 14 9 11 12 16 13 13 10 11 7 11 8 4 5 7 7 6 5 5 3 4 5 7 9 12 13 10 10 11 12 12 12 14 16 16 16 18 16
6 4 8 10 5 10 12 16 15 18 18 17 15 11 15 15 13 17 9 7 6 6 6 5 5 4 4 4 6 7 10 10 11 10 11 13 12 12 13 14 16 17 17 19
9 13 14 13 16 13 14 12 15 19 16 17 17 6 16 10 11 17 12 8 7 7 7 7 6 6 6 4 6 7 8 9 10 10 11 13 13 12 12 13 14 17 18 17
8 13 13 15 17 18 19 19 19 20 20 20 21 25 9 8 7 14 11 8 8 9 8 9 8 7 7 8 7 7 8 9 10 10 11 11 12 13 13 12 13 15 16 18
10 14 14 17 17 19 21 20 20 19 19 19 19 13 7 9 10 11 7 8 7 9 9 9 9 9 9 9 10 10 10 10 11 12 12 11 11 12 12 13 14 14 14 20
14 15 16 18 18 18 18 15 16 15 12 12 14 3 8 9 7 7 8 9 10 10 9 9 9 9 11 11 12 13 13 13 13 13 14 14 13 13 14 13 14 14 14 15
17 17 17 18 18 19 17 14 12 13 13 12 8 8 9 8 9 10 12 12 12 11 10 10 11 11 12 13 14 13 16 16 15 15 15 16 15 15 15 15 15 15 15 15
17 18 18 18 19 21 20 10 10 9 11 10 12 10 11 13 13 15 13 13 13 12 12 13 13 14 13 13 14 16 17 17 18 18 17 17 17 17 16 17 16 16 16 16
14 15 16 18 19 18 11 10 12 13 14 13 13 14 16 17 16 15 16 15 15 14 14 15 15 16 15 16 16 16 18 19 19 20 19 19 18 18 19 18 18 17 17 17
15 14 15 16 18 17 12 14 16 18 14 14 15 14 15 15 16 18 20 20 18 18 18 17 18 18 18 18 17 18 18 19 18 18 19 22 21 21 20 20 20 20 19 19
18 16 17 17 19 16 14 17 15 13 13 15 16 16 17 18 19 19 20 20 21 21 21 21 21 21 20 20 18 19 19 19 20 22 22 21 23 24 24 23 23 23 22 22
14 16 16 14 12 13 15 14 15 17 18 19 19 21 22 23 23 24 24 25 25 25 24 24 24 24 23 23 22 22 22 22 22 22 22 24 26 26 27 27 26 27 26 25
11 13 16 17 17 19 18 19 21 21 21 24 25 26 26 27 28 29 28 28 27 27 27 27 28 28 28 28 28 28 27 26 26 26 25 25 25 26 28 30 31 30 30 29
17 19 18 21 23 23 22 20 20 22 24 27 27 27 29 29 29 28 28 29 29 30 30 30 30 30 30 30 31 32 32 31 30 29 29 28 28 28 27 28 30 32 30 27
19 20 18 18 18 19 21 24 26 28 27 28 28 29 27 28 29 30 30 30 30 31 31 31 31 31 31 31 31 31 32 33 33 33 32 30 29 29 29 29 30 31 27 23
Wind_Direction
234 246 246 251 261 285 292 283 291 288 286 306 295 294 321 344 333 269 269 237 234 218 212 214 213 213 212 211 207 210 215 213 216 217 223 227 231 232 239 241 232 228 232 232
248 243 258 257 273 280 271 269 280 286 284 289 290 332 325 326 317 310 271 254 239 225 252 222 217 216 214 209 210 213 212 216 220 228 230 228 230 235 244 228 230 227 231 231
245 258 255 253 259 255 259 268 286 305 302 290 275 331 336 318 303 312 310 265 235 228 211 209 227 215 215 211 208 210 213 214 222 229 228 229 231 235 236 227 227 225 225 228
257 255 259 262 253 256 267 311 297 293 294 294 282 290 327 327 336 298 291 276 250 240 220 237 222 217 214 206 207 207 210 215 222 225 228 227 230 234 240 228 219 220 220 224
252 252 253 253 251 258 268 291 291 294 289 281 315 299 305 323 344 291 293 257 275 273 228 235 224 230 208 212 221 204 207 211 218 222 229 230 230 235 238 220 216 215 218 221
259 284 259 251 250 256 268 280 280 282 279 269 314 304 294 305 334 21 11 334 320 302 217 250 224 225 237 244 225 194 197 205 214 222 230 232 232 231 229 227 212 212 216 220
249 252 250 250 261 253 259 272 291 304 303 280 283 269 297 282 291 35 18 1 336 329 297 268 229 213 213 240 233 201 198 208 219 228 236 235 236 233 233 240 225 220 217 216
273 280 226 219 238 265 277 287 286 304 322 292 275 249 274 291 323 8 48 26 3 341 331 311 224 241 195 264 195 209 206 219 226 233 232 235 236 233 231 234 233 226 218 214
55 301 163 222 241 242 276 285 305 296 310 1 14 19 333 299 318 303 329 27 6 355 346 329 336 207 209 183 210 205 211 228 231 232 231 232 235 230 225 228 228 224 217 215
291 286 247 259 235 251 268 297 304 309 313 318 305 309 257 351 188 269 309 9 2 357 353 344 307 274 199 199 209 212 217 231 233 231 233 233 233 230 228 227 227 224 218 222
285 287 260 245 243 294 265 261 306 300 303 294 322 60 191 227 231 243 351 360 357 352 351 345 343 281 228 221 219 223 239 235 239 239 233 234 228 230 228 226 225 227 222 226
297 277 280 288 253 254 272 300 277 274 283 289 294 281 293 308 19 346 324 338 338 342 347 347 332 329 264 239 227 227 232 249 238 245 235 232 232 232 229 230 228 229 228 227
302 271 293 286 325 297 314 295 288 293 288 286 286 272 275 296 317 314 320 321 320 311 319 330 330 320 293 263 245 246 234 254 237 246 235 232 231 232 232 233 230 230 232 233
272 271 272 275 292 292 280 278 266 284 295 299 306 261 280 285 286 267 283 299 313 316 312 309 301 302 291 270 253 250 245 244 240 242 239 236 234 233 236 232 235 233 233 234
265 268 276 283 291 292 291 289 284 285 284 286 289 299 272 269 265 251 272 292 308 309 305 304 303 278 281 272 254 250 248 242 240 244 241 236 236 238 239 239 238 236 233 234
274 277 281 282 285 285 284 279 278 277 280 284 290 302 256 249 251 260 280 293 309 313 302 301 295 286 280 267 260 257 250 242 242 243 244 243 242 240 241 243 243 237 238 234
274 280 285 282 291 293 288 287 277 278 283 304 303 195 230 231 234 287 286 298 306 305 298 295 293 288 280 274 263 257 253 249 246 245 244 246 247 245 244 245 243 244 240 240
270 271 275 282 287 279 284 286 283 276 284 291 302 280 275 268 266 280 290 294 299 299 294 289 288 288 284 276 271 270 254 250 248 247 248 249 248 247 246 246 245 243 240 236
271 273 276 277 276 281 280 293 299 293 282 295 280 290 274 269 267 274 283 289 290 290 287 286 288 287 280 280 274 265 261 256 250 250 250 250 248 247 246 245 245 242 237 234
268 275 270 275 281 281 298 278 280 284 275 290 292 282 283 281 278 275 290 290 287 286 285 285 285 284 283 282 276 271 262 258 257 252 252 252 252 251 249 246 244 242 237 232
269 265 271 272 271 274 287 284 286 274 278 286 287 287 286 284 280 276 276 275 278 280 282 283 281 280 282 283 275 267 264 259 261 260 258 253 253 252 250 247 243 239 235 233
274 276 273 272 275 264 294 285 282 281 279 283 287 286 284 283 282 279 279 276 277 277 278 278 277 277 277 278 275 269 265 265 263 260 259 258 255 253 249 246 242 239 235 232
265 271 274 274 288 280 282 278 284 285 284 286 282 281 283 283 282 281 280 279 277 277 277 275 273 273 272 272 272 269 267 265 264 262 261 258 257 255 252 249 244 239 236 234
280 289 273 273 272 282 284 286 285 282 285 286 283 282 283 283 282 280 279 278 277 277 276 275 273 271 270 269 268 267 267 266 263 261 261 260 259 257 254 251 245 242 237 234
276 287 285 284 281 279 277 287 289 288 287 287 283 284 284 282 281 280 280 279 278 278 277 275 273 272 270 269 267 266 265 264 263 261 260 260 261 257 256 255 253 244 236 233
279 283 280 284 292 290 283 283 287 288 290 288 286 284 282 284 283 282 280 279 278 277 276 274 273 272 271 269 268 266 265 263 262 260 259 258 259 256 256 257 257 260 265 255